Tracking 18945 objects as of 20-Jan-2018
HD Live streaming from Space Station
objects crossing your sky now

FENGYUN 1C DEB

Track FENGYUN 1C DEB now!
10-day predictions


NORAD ID: 29945
Int'l Code: 1999-025JT
Perigee: 861.8 km
Apogee: 908.3 km
Inclination: 99.1 °
Period: 102.5 minutes
Semi major axis: 7256 km
RCS: 0.6272 m2 (medium)
Launch date: May 10, 1999
Source: People's Republic of China (PRC)
Launch site: Taiyaun Space Center, China (TSC)

Note: This is SATELLITE DEBRIS
aabbcc
Your satellite tracking list
Your tracking list is empty




NASA's NSSDC Master Catalog

Two Line Element Set (TLE):
1 29945U 99025JT  18019.90406549 -.00000237 +00000-0 -11982-3 0  9998
2 29945 099.1141 043.6473 0032065 123.4098 356.0456 14.04602179564857
Source of the keplerian elements: AFSPC